FW4655 Weather Reports


Display with metric or nautical units.
time (UTC)temp
F
wind
direction
speed
MPH
gust
MPH
rain 1hr
in
rain 24hr
in
rain mn
in
humidity
%
barometer
mb
20260509055508 60 56 1.0 4.0 0.00 0.00 0.00 69 1023.4
20260509055008 60 93 0.0 3.0 0.00 0.00 0.00 69 1023.4
20260509054525 60 96 1.0 3.0 0.00 0.00 0.00 69 1023.4
20260509054012 60 48 0.0 3.0 0.00 0.00 0.00 68 1023.3
20260509053510 60 88 1.0 3.0 0.00 0.00 0.00 68 1023.3
20260509053017 60 39 0.0 3.0 0.00 0.00 0.00 68 1023.3
20260509052506 60 44 0.0 3.0 0.00 0.00 0.00 67 1023.3
20260509052007 60 86 1.0 4.0 0.00 0.00 0.00 67 1023.3
20260509051510 61 49 1.0 5.0 0.00 0.00 0.00 67 1023.2
20260509051008 61 82 1.0 7.0 0.00 0.00 0.00 67 1023.2
20260509050509 61 82 3.0 7.0 0.00 0.00 0.00 66 1023.2
20260509050039 61 64 1.0 7.0 0.00 0.00 0.00 66 1023.1
20260509045509 61 27 2.0 7.0 0.00 0.00 0.00 65 1023.0
20260509045009 62 41 3.0 5.0 0.00 0.00 0.00 65 1023.0
20260509044518 62 77 2.0 5.0 0.00 0.00 0.00 65 1022.9
20260509044013 62 52 0.0 6.0 0.00 0.00 0.00 65 1022.8
20260509043509 62 96 2.0 7.0 0.00 0.00 0.00 64 1022.8
20260509043034 62 74 3.0 8.0 0.00 0.00 0.00 64 1022.8
20260509042511 62 72 2.0 8.0 0.00 0.00 0.00 63 1022.7
20260509042014 63 65 0.0 7.0 0.00 0.00 0.00 63 1022.7
20260509041528 63 71 4.0 8.0 0.00 0.00 0.00 62 1022.6
20260509041009 63 75 3.0 8.0 0.00 0.00 0.00 62 1022.5
20260509040509 64 32 2.0 9.0 0.00 0.00 0.00 61 1022.5
20260509040012 64 19 3.0 9.0 0.00 0.00 0.00 61 1022.5
20260509035509 64 354 4.0 7.0 0.00 0.00 0.00 60 1022.4
20260509035008 64 110 2.0 6.0 0.00 0.00 0.00 60 1022.4
20260509034518 64 81 1.0 5.0 0.00 0.00 0.00 60 1022.3
20260509034007 64 34 2.0 7.0 0.00 0.00 0.00 60 1022.3
20260509033512 64 63 3.0 7.0 0.00 0.00 0.00 59 1022.2
20260509033025 64 90 2.0 7.0 0.00 0.00 0.00 59 1022.1
20260509032518 65 57 1.0 5.0 0.00 0.00 0.00 58 1022.0
20260509032012 65 102 1.0 5.0 0.00 0.00 0.00 58 1022.0
20260509031531 65 51 0.0 5.0 0.00 0.00 0.00 58 1022.0
20260509031015 65 49 3.0 5.0 0.00 0.00 0.00 57 1022.0
20260509030510 65 107 1.0 7.0 0.00 0.00 0.00 57 1021.9
20260509030029 65 73 3.0 8.0 0.00 0.00 0.00 57 1021.9
20260509025508 65 85 3.0 8.0 0.00 0.00 0.00 56 1021.9
20260509025006 65 63 3.0 6.0 0.00 0.00 0.00 56 1022.0
20260509024515 66 101 3.0 6.0 0.00 0.00 0.00 55 1021.8
20260509024014 66 76 2.0 7.0 0.00 0.00 0.00 55 1021.7
20260509023507 66 39 3.0 7.0 0.00 0.00 0.00 53 1021.7
20260509023024 67 42 3.0 6.0 0.00 0.00 0.00 53 1021.6
20260509022512 67 66 1.0 5.0 0.00 0.00 0.00 53 1021.7
20260509022009 67 46 2.0 5.0 0.00 0.00 0.00 52 1021.7
20260509021524 67 98 2.0 5.0 0.00 0.00 0.00 52 1021.7
20260509021008 67 72 2.0 5.0 0.00 0.00 0.00 52 1021.7
20260509020510 67 92 2.0 7.0 0.00 0.00 0.00 52 1021.7
20260509020026 67 93 2.0 7.0 0.00 0.00 0.00 52 1021.7
20260509015510 67 68 3.0 6.0 0.00 0.00 0.00 52 1021.7
20260509015015 67 55 2.0 6.0 0.00 0.00 0.00 52 1021.7
20260509014527 68 43 1.0 3.0 0.00 0.00 0.00 51 1021.7
20260509014009 68 323 1.0 3.0 0.00 0.00 0.00 51 1021.7
20260509013510 67 59 0.0 4.0 0.00 0.00 0.00 51 1021.7
20260509013018 68 59 1.0 4.0 0.00 0.00 0.00 51 1021.7
20260509012512 68 65 2.0 4.0 0.00 0.00 0.00 51 1021.8
20260509012010 67 59 0.0 2.0 0.00 0.00 0.00 51 1021.8
20260509011522 67 94 0.0 3.0 0.00 0.00 0.00 51 1021.8
20260509011010 67 129 2.0 3.0 0.00 0.00 0.00 50 1022.0
20260509010509 68 99 0.0 2.0 0.00 0.00 0.00 50 1022.0
20260509010030 68 340 0.0 2.0 0.00 0.00 0.00 50 1022.0
20260509005511 68 337 0.0 4.0 0.00 0.00 0.00 49 1022.1
20260509005013 68 8 1.0 6.0 0.00 0.00 0.00 49 1022.1
20260509004527 69 51 2.0 6.0 0.00 0.00 0.00 49 1022.1
20260509004011 69 326 0.0 7.0 0.00 0.00 0.00 49 1022.2
20260509003510 69 288 3.0 7.0 0.00 0.00 0.00 48 1022.2
20260509003028 70 359 3.0 8.0 0.00 0.00 0.00 48 1022.1
20260509002509 70 56 3.0 8.0 0.00 0.00 0.00 47 1022.2
20260509002014 70 345 3.0 6.0 0.00 0.00 0.00 47 1022.2
20260509001528 70 354 1.0 6.0 0.00 0.00 0.00 48 1022.2
20260509001011 70 37 2.0 9.0 0.00 0.00 0.00 48 1022.2
20260509000506 70 248 2.0 9.0 0.00 0.00 0.00 47 1022.2
20260509000037 70 328 1.0 9.0 0.00 0.00 0.00 47 1022.2
20260508235503 69 62 3.0 9.0 0.00 0.00 0.00 48 1022.3
20260508235003 70 295 3.0 8.0 0.00 0.00 0.00 48 1022.3
20260508234503 70 328 1.0 5.0 0.00 0.00 0.00 49 1022.2
20260508234003 70 41 1.0 6.0 0.00 0.00 0.00 48 1022.3
20260508233503 69 344 2.0 6.0 0.00 0.00 0.00 49 1022.3
20260508233003 70 338 3.0 5.0 0.00 0.00 0.00 49 1022.4
20260508232502 69 211 1.0 5.0 0.00 0.00 0.00 49 1022.3
20260508232002 69 59 2.0 9.0 0.00 0.00 0.00 50 1022.3
20260508231503 68 253 1.0 9.0 0.00 0.00 0.00 50 1022.4
20260508231007 68 63 3.0 8.0 0.00 0.00 0.00 50 1022.3
20260508230505 68 52 5.0 8.0 0.00 0.00 0.00 49 1022.3
20260508230005 68 194 2.0 6.0 0.00 0.00 0.00 50 1022.3
20260508225503 68 291 3.0 9.0 0.00 0.00 0.00 50 1022.3
20260508225008 67 349 4.0 9.0 0.00 0.00 0.00 51 1022.3
20260508224511 67 153 3.0 8.0 0.00 0.00 0.00 51 1022.2
20260508224006 67 226 2.0 8.0 0.00 0.00 0.00 52 1022.3
20260508223503 67 263 2.0 7.0 0.00 0.00 0.00 51 1022.3
20260508223003 67 265 3.0 8.0 0.00 0.00 0.00 50 1022.4
20260508222502 67 286 1.0 8.0 0.00 0.00 0.00 51 1022.4
20260508222002 67 302 1.0 8.0 0.00 0.00 0.00 50 1022.4
20260508221504 67 278 2.0 8.0 0.00 0.00 0.00 51 1022.4
20260508221004 67 304 1.0 8.0 0.00 0.00 0.00 52 1022.4
20260508220504 67 274 2.0 8.0 0.00 0.00 0.00 52 1022.5
20260508220005 67 309 3.0 8.0 0.00 0.00 0.00 52 1022.6
20260508215503 66 271 3.0 9.0 0.00 0.00 0.00 52 1022.5
20260508215003 66 85 1.0 9.0 0.00 0.00 0.00 52 1022.5
20260508214504 66 314 3.0 8.0 0.00 0.00 0.00 52 1022.5
20260508214005 65 232 1.0 7.0 0.00 0.00 0.00 52 1022.5
20260508213503 65 288 3.0 7.0 0.00 0.00 0.00 52 1022.6
20260508213007 65 230 2.0 7.0 0.00 0.00 0.00 53 1022.6
20260508212503 64 165 0.0 6.0 0.00 0.00 0.00 53 1022.7
20260508212002 64 23 3.0 6.0 0.00 0.00 0.00 53 1022.6
20260508211504 64 338 2.0 9.0 0.00 0.00 0.00 53 1022.7
20260508211004 64 62 2.0 9.0 0.00 0.00 0.00 52 1022.6
20260508210504 64 167 3.0 14.0 0.00 0.00 0.00 53 1022.7
20260508210004 64 258 3.0 14.0 0.00 0.00 0.00 53 1022.8
20260508205503 64 319 3.0 7.0 0.00 0.00 0.00 52 1022.7
20260508205007 64 17 2.0 7.0 0.00 0.00 0.00 51 1022.7
20260508204504 64 43 1.0 7.0 0.00 0.00 0.00 52 1022.7
20260508204003 63 18 2.0 13.0 0.00 0.00 0.00 52 1022.7
20260508203505 63 220 3.0 13.0 0.00 0.00 0.00 52 1022.8
20260508203007 63 285 3.0 8.0 0.00 0.00 0.00 53 1022.9
20260508202503 63 243 1.0 7.0 0.00 0.00 0.00 53 1022.8
20260508202003 63 221 3.0 7.0 0.00 0.00 0.00 52 1023.0
20260508201507 62 287 3.0 7.0 0.00 0.00 0.00 52 1023.0
20260508201004 63 50 2.0 8.0 0.00 0.00 0.00 54 1022.9
20260508200504 61 20 2.0 8.0 0.00 0.00 0.00 56 1022.9
20260508200019 61 70 3.0 6.0 0.00 0.00 0.00 56 1023.1
20260508195506 61 282 2.0 6.0 0.00 0.00 0.00 55 1023.1
20260508195004 61 158 2.0 5.0 0.00 0.00 0.00 57 1023.2
20260508194512 60 2 2.0 7.0 0.00 0.00 0.00 57 1023.2
20260508194007 60 347 3.0 8.0 0.00 0.00 0.00 57 1023.2
20260508193503 61 356 4.0 8.0 0.00 0.00 0.00 56 1023.2
20260508193005 60 299 2.0 8.0 0.00 0.00 0.00 57 1023.1
20260508192505 60 330 2.0 8.0 0.00 0.00 0.00 58 1023.0
20260508192009 59 41 3.0 8.0 0.00 0.00 0.00 59 1023.2
20260508191508 59 297 1.0 8.0 0.00 0.00 0.00 59 1023.3
20260508191005 59 300 2.0 6.0 0.00 0.00 0.00 58 1023.4
20260508190504 59 246 2.0 9.0 0.00 0.00 0.00 58 1023.4
20260508190014 59 303 2.0 9.0 0.00 0.00 0.00 59 1023.4
20260508185503 59 316 3.0 10.0 0.00 0.00 0.00 58 1023.4
20260508185004 59 306 3.0 10.0 0.00 0.00 0.00 60 1023.3
20260508184518 59 292 4.0 9.0 0.00 0.00 0.00 61 1023.3
20260508184006 59 310 3.0 9.0 0.00 0.00 0.00 60 1023.3
20260508183503 59 20 4.0 10.0 0.00 0.00 0.00 60 1023.2
20260508183011 58 309 3.0 10.0 0.00 0.00 0.00 61 1023.2
20260508182506 57 284 2.0 7.0 0.00 0.00 0.00 63 1023.2
20260508182003 57 306 3.0 7.0 0.00 0.00 0.00 64 1023.2
20260508181513 57 58 3.0 8.0 0.00 0.00 0.00 64 1023.2
20260508181012 57 25 3.0 8.0 0.00 0.00 0.00 63 1023.1
20260508180505 58 333 3.0 7.0 0.00 0.00 0.00 63 1023.1
20260508180010 58 304 2.0 8.0 0.00 0.00 0.00 63 1023.0
20260508175507 58 193 3.0 8.0 0.00 0.00 0.00 61 1023.0
20260508175007 58 277 4.0 7.0 0.00 0.00 0.00 63 1023.0
20260508174509 56 5 2.0 8.0 0.00 0.00 0.00 66 1022.9
20260508174009 56 30 2.0 8.0 0.00 0.00 0.00 68 1022.9
20260508173507 56 66 3.0 8.0 0.00 0.00 0.00 67 1022.8
20260508173016 56 345 2.0 5.0 0.00 0.00 0.00 67 1022.8
20260508172505 55 359 1.0 5.0 0.00 0.00 0.00 68 1022.7
20260508172010 55 344 2.0 5.0 0.00 0.00 0.00 69 1022.7
20260508171528 55 44 2.0 5.0 0.00 0.00 0.00 68 1022.7
20260508171008 55 69 1.0 6.0 0.00 0.00 0.00 69 1022.5
20260508170506 55 356 3.0 6.0 0.00 0.00 0.00 69 1022.5
20260508170012 55 3 1.0 6.0 0.00 0.00 0.00 70 1022.4
20260508165507 54 297 1.0 5.0 0.00 0.00 0.00 70 1022.3
20260508165005 54 193 2.0 5.0 0.00 0.00 0.00 70 1022.1
20260508164521 54 233 1.0 5.0 0.00 0.00 0.00 70 1022.1
20260508164008 55 293 1.0 5.0 0.00 0.00 0.00 70 1022.0
20260508163509 54 332 2.0 5.0 0.00 0.00 0.00 70 1022.1
20260508163013 54 233 1.0 4.0 0.00 0.00 0.00 71 1022.1
20260508162505 54 304 2.0 4.0 0.00 0.00 0.00 70 1022.2
20260508162008 54 293 1.0 6.0 0.00 0.00 0.00 71 1022.2
20260508161530 54 217 2.0 6.0 0.00 0.00 0.00 71 1022.0
20260508161005 53 198 2.0 5.0 0.00 0.00 0.00 71 1022.0
20260508160504 53 298 2.0 5.0 0.00 0.00 0.00 71 1021.9
20260508160020 53 306 1.0 6.0 0.00 0.00 0.00 72 1021.9
20260508155506 53 259 2.0 6.0 0.00 0.00 0.00 72 1021.8
20260508155008 53 305 2.0 5.0 0.00 0.00 0.00 72 1022.0
20260508154518 53 245 1.0 5.0 0.00 0.00 0.00 73 1021.9
20260508154008 53 243 3.0 5.0 0.00 0.00 0.00 72 1021.8
20260508153507 52 228 2.0 4.0 0.00 0.00 0.00 72 1021.8
20260508153015 53 205 2.0 6.0 0.00 0.00 0.00 73 1021.9
20260508152508 53 226 1.0 6.0 0.00 0.00 0.00 73 1021.9
20260508152009 52 238 1.0 5.0 0.00 0.00 0.00 75 1021.9
20260508151516 52 218 2.0 5.0 0.00 0.00 0.00 74 1022.0
20260508151012 52 236 2.0 5.0 0.00 0.00 0.00 75 1022.0
20260508150508 52 239 2.0 5.0 0.00 0.00 0.00 75 1022.0
20260508150022 52 240 2.0 4.0 0.00 0.00 0.00 75 1022.1
20260508145509 51 290 1.0 4.0 0.00 0.00 0.00 75 1022.1
20260508145013 52 162 2.0 5.0 0.00 0.00 0.00 74 1022.2
20260508144505 52 325 2.0 6.0 0.00 0.00 0.00 75 1022.2
20260508144003 51 310 1.0 6.0 0.00 0.00 0.00 76 1022.2
20260508143504 51 288 2.0 6.0 0.00 0.00 0.00 76 1022.2
20260508143014 51 316 2.0 6.0 0.00 0.00 0.00 76 1022.2
20260508142505 51 238 2.0 6.0 0.00 0.00 0.00 76 1022.1
20260508142007 51 266 1.0 5.0 0.00 0.00 0.00 77 1022.0
20260508141519 50 247 1.0 5.0 0.00 0.00 0.00 77 1021.8
20260508141011 50 290 1.0 5.0 0.00 0.00 0.00 77 1021.7
20260508140506 50 248 1.0 5.0 0.00 0.00 0.00 77 1021.7
20260508140012 50 222 1.0 3.0 0.00 0.00 0.00 77 1021.5
20260508135509 50 241 1.0 3.0 0.00 0.00 0.00 76 1021.4
20260508135006 50 226 1.0 4.0 0.00 0.00 0.00 76 1021.4
20260508134520 50 288 1.0 4.0 0.00 0.00 0.00 75 1021.2
20260508134009 50 285 0.0 4.0 0.00 0.00 0.00 75 1021.2
20260508133511 50 270 2.0 4.0 0.00 0.00 0.00 75 1021.0
20260508133022 50 310 0.0 4.0 0.00 0.00 0.00 75 1020.9
20260508132503 50 288 1.0 4.0 0.00 0.00 0.00 75 1020.9
20260508132003 50 288 0.0 3.0 0.00 0.00 0.00 74 1020.8
20260508131507 50 295 1.0 2.0 0.00 0.00 0.00 75 1020.7
20260508131010 50 283 0.0 2.0 0.00 0.00 0.00 76 1020.6
20260508130506 50 276 0.0 0.0 0.00 0.00 0.00 77 1020.4
20260508130017 50 276 0.0 0.0 0.00 0.00 0.00 77 1020.2
20260508125506 51 237 0.0 0.0 0.00 0.00 0.00 77 1020.1
20260508125007 51 276 0.0 0.0 0.00 0.00 0.00 75 1020.1
20260508124516 51 198 0.0 0.0 0.00 0.00 0.00 75 1020.1
20260508124010 51 214 0.0 0.0 0.00 0.00 0.00 75 1020.1
20260508123507 51 214 0.0 0.0 0.00 0.00 0.00 74 1019.9
20260508123021 51 214 0.0 0.0 0.00 0.00 0.00 73 1019.9
20260508122507 51 207 0.0 0.0 0.00 0.00 0.00 74 1020.0
20260508122008 51 228 0.0 0.0 0.00 0.00 0.00 75 1019.9
20260508121524 51 228 0.0 0.0 0.00 0.00 0.00 76 1019.9
20260508121009 51 228 0.0 0.0 0.00 0.00 0.00 77 1019.9
20260508120510 50 157 0.0 0.0 0.00 0.00 0.00 79 1019.9
20260508120014 50 146 0.0 0.0 0.00 0.00 0.00 81 1019.9
20260508115504 50 146 0.0 0.0 0.00 0.00 0.00 82 1019.8
20260508115005 50 145 0.0 0.0 0.00 0.00 0.00 82 1019.7
20260508114526 50 145 0.0 0.0 0.00 0.00 0.00 82 1019.6
20260508114006 50 145 0.0 0.0 0.00 0.00 0.00 81 1019.6
20260508113505 50 145 0.0 0.0 0.00 0.00 0.00 81 1019.6
20260508113021 50 145 0.0 0.0 0.00 0.00 0.00 81 1019.4
20260508112507 50 146 0.0 0.0 0.00 0.00 0.00 81 1019.4
20260508112012 50 146 0.0 0.0 0.00 0.00 0.00 81 1019.2
20260508111524 50 146 0.0 0.0 0.00 0.00 0.00 82 1019.1
20260508111011 50 145 0.0 0.0 0.00 0.00 0.00 82 1019.1
20260508110510 50 138 0.0 0.0 0.00 0.00 0.00 82 1019.0
20260508110023 50 110 0.0 0.0 0.00 0.00 0.00 81 1018.9
20260508105511 49 110 0.0 0.0 0.00 0.00 0.00 80 1018.9
20260508105010 50 110 0.0 0.0 0.00 0.00 0.00 80 1018.9
20260508104526 50 110 0.0 0.0 0.00 0.00 0.00 80 1018.7
20260508104006 50 110 0.0 0.0 0.00 0.00 0.00 81 1018.8
20260508103507 49 110 0.0 0.0 0.00 0.00 0.00 81 1018.8
20260508103012 49 110 0.0 0.0 0.00 0.00 0.00 81 1018.7
20260508102512 49 110 0.0 0.0 0.00 0.00 0.00 82 1018.7
20260508102009 49 110 0.0 0.0 0.00 0.00 0.00 82 1018.7
20260508101516 49 110 0.0 0.0 0.00 0.00 0.00 81 1018.7
20260508101008 49 110 0.0 0.0 0.00 0.00 0.00 81 1018.6
20260508100506 49 110 0.0 0.0 0.00 0.00 0.00 81 1018.6
20260508100032 50 110 0.0 0.0 0.00 0.00 0.00 81 1018.4
20260508095515 50 110 0.0 0.0 0.00 0.00 0.00 82 1018.4
20260508095012 50 110 0.0 0.0 0.00 0.00 0.00 82 1018.3
20260508094524 49 110 0.0 0.0 0.00 0.00 0.00 83 1018.3
20260508094009 49 110 0.0 0.0 0.00 0.00 0.00 83 1018.3
20260508093511 49 110 0.0 0.0 0.00 0.00 0.00 83 1018.2
20260508093028 49 110 0.0 0.0 0.00 0.00 0.00 83 1018.3
20260508092512 49 110 0.0 0.0 0.00 0.00 0.00 81 1018.2
20260508092007 49 110 0.0 0.0 0.00 0.00 0.00 81 1018.2
20260508091513 50 110 0.0 0.0 0.00 0.00 0.00 81 1018.2
20260508091010 50 110 0.0 0.0 0.00 0.00 0.00 82 1018.2
20260508090512 50 110 0.0 0.0 0.00 0.00 0.00 82 1018.1
20260508090020 49 110 0.0 0.0 0.00 0.00 0.00 83 1018.1
20260508085508 49 110 0.0 0.0 0.00 0.00 0.00 81 1018.1
20260508085007 49 110 0.0 0.0 0.00 0.00 0.00 80 1018.0
20260508084522 50 110 0.0 0.0 0.00 0.00 0.00 81 1018.0
20260508084010 50 110 0.0 0.0 0.00 0.00 0.00 80 1017.9
20260508083513 50 110 0.0 0.0 0.00 0.00 0.00 80 1018.0
20260508083025 51 110 0.0 0.0 0.00 0.00 0.00 79 1017.9
20260508082517 51 110 0.0 0.0 0.00 0.00 0.00 80 1017.9
20260508082011 51 110 0.0 0.0 0.00 0.00 0.00 78 1017.9
20260508081528 51 110 0.0 0.0 0.00 0.00 0.00 77 1017.9
20260508081008 51 110 0.0 0.0 0.00 0.00 0.00 77 1018.0
20260508080508 51 110 0.0 0.0 0.00 0.00 0.00 76 1017.8
20260508080029 51 110 0.0 0.0 0.00 0.00 0.00 77 1017.8
20260508075509 51 110 0.0 0.0 0.00 0.00 0.00 78 1017.8
20260508075006 51 110 0.0 0.0 0.00 0.00 0.00 77 1017.8
20260508074520 51 110 0.0 0.0 0.00 0.00 0.00 77 1017.8
20260508074008 51 110 0.0 0.0 0.00 0.00 0.00 75 1017.9
20260508073511 52 110 0.0 0.0 0.00 0.00 0.00 75 1017.9
20260508073024 52 110 0.0 0.0 0.00 0.00 0.00 75 1017.8
20260508072512 53 110 0.0 0.0 0.00 0.00 0.00 75 1017.8
20260508072010 53 110 0.0 0.0 0.00 0.00 0.00 74 1017.7
20260508071526 53 110 0.0 0.0 0.00 0.00 0.00 74 1017.8
20260508071013 53 110 0.0 0.0 0.00 0.00 0.00 75 1017.8
20260508070511 53 110 0.0 0.0 0.00 0.00 0.00 74 1017.9
20260508070026 53 110 0.0 0.0 0.00 0.00 0.00 73 1017.9
20260508065510 53 110 0.0 0.0 0.00 0.00 0.00 73 1017.9
20260508065010 53 110 0.0 0.0 0.00 0.00 0.00 73 1017.8
20260508064548 53 110 0.0 0.0 0.00 0.00 0.00 73 1017.7
20260508064009 54 110 0.0 0.0 0.00 0.00 0.00 72 1017.7
20260508063509 54 110 0.0 0.0 0.00 0.00 0.00 72 1017.7
20260508063027 54 110 0.0 0.0 0.00 0.00 0.00 72 1017.7
20260508062512 54 110 0.0 0.0 0.00 0.00 0.00 71 1017.7
20260508062009 54 110 0.0 0.0 0.00 0.00 0.00 72 1017.6
20260508061523 54 110 0.0 0.0 0.00 0.00 0.00 72 1017.7
20260508061015 54 110 0.0 0.0 0.00 0.00 0.00 71 1017.6
20260508060518 55 110 0.0 0.0 0.00 0.00 0.00 71 1017.6
20260508060033 55 110 0.0 0.0 0.00 0.00 0.00 70 1017.6